カタログに戻る

SL-16 DEB

運用中LEO
NORAD 22812·DEBRIS·🇷🇺 Russia

打ち上げ Dec 25, 1992 から Baikonur Cosmodrome

Loading…

次のパス (今後24時間)

TLE

最新Source: Space-Track

元期: Sep 14, 2026, 00:37 UTC

1 22812U 92093JB  26257.02581163  .00000700  00000-0  40313-3 0  9997
2 22812  70.6836 112.8917 0125250 275.7616  82.9233 14.08949155695525

AllMySatでSL-16 DEBをリアルタイム追跡

Download on the App Store